{"data":{"norad_id":68808,"intl_designator":"2026-089G","name":"STARLINK-37446","alt_names":[],"object_type":"PAYLOAD","status":"ACTIVE","operator":null,"country":"US","launch_date":"2026-04-23","launch_site_code":"AFWTR","launch_vehicle":null,"mission":null,"orbit_class":"UNKNOWN","rcs_meters":null,"size_class":null,"mass_kg":null,"dimensions":null,"purposes":["comms"],"wikipedia_slug":null,"has_3d_model":false,"image_url":null,"decayed_at":null,"tle_current":{"epoch":"2026-09-20T00:38:17.903040Z","epoch_age_seconds":80972,"freshness":"FRESH","line1":"1 68808U 26089G   26263.02659610  .00013358  00000+0  41532-3 0  9990","line2":"2 68808  97.2847 108.7490 0003098  76.8784 283.2804 15.33445196 23180","mean_motion":15.33445196,"eccentricity":0.0003098,"inclination_deg":97.2847,"raan_deg":108.749,"arg_perigee_deg":76.8784,"mean_anomaly_deg":283.2804,"bstar":0.00041532,"rev_number":2318,"period_min":93.906192654048,"perigee_km":463.4224193827,"apogee_km":467.66276325748,"semimajor_km":6843.6795913201,"source":"CELESTRAK","updated_at":"2026-09-20T09:00:44.006927Z"}}}